Mount Pleasant, IA

3:52 AM CDT on March 25, 2017 (GMT -0500)
Mount Pleasant Municipal

Weather History for KMPZ - March, 2013

Change the Weather History Date:

Friday, March 29, 2013

  Actual Average Record
Temperature  
Mean Temperature 48 °F -  
Max Temperature 64 °F 53 °F 87 °F (1986)
Min Temperature 33 °F 36 °F 10 °F (1969)
Degree Days  
Heating Degree Days 16    
Moisture  
Dew Point 26 °F    
Average Humidity 46    
Maximum Humidity 77    
Minimum Humidity 15    
Precipitation  
Precipitation 0.00 in - - ()
Sea Level Pressure  
Sea Level Pressure 30.24 in    
Wind  
Wind Speed 6 mph (East)    
Max Wind Speed 10 mph    
Max Gust Speed -    
Visibility 10 miles    
Events      
Averages and records for this station are not official NWS values.
T = Trace of Precipitation, MM = Missing Value Source: NWS Daily Summary

Daily Weather History Graph

Daily Weather History Graph

Search for Another Location

Airport or City:

Trip Planner

Search our weather history database for the weather conditions in past years. The results will help you decide how hot, cold, wet, or windy it might be!

Date:

Astronomy

Mar. 29, 2013 Rise Set
Actual Time 6:53 AM CDT 7:28 PM CDT
Civil Twilight 6:26 AM CDT 7:55 PM CDT
Nautical Twilight 5:53 AM CDT 8:28 PM CDT
Astronomical Twilight 5:20 AM CDT 9:02 PM CDT
Moon 10:30 PM CDT (3/29) 8:01 AM CDT (3/29)
Length of Visible Light 13h 29m
Length of Day
12h 34m
Waning Gibbous, 93% of the Moon is Illuminated
Mar 29
Waning Gibbous
Apr 2
Last Quarter
Apr 10
New
Apr 18
First Quarter
Apr 25
Full

Hourly Weather History & Observations

Time (CDT) Temp. Windchill Dew Point Humidity Pressure Visibility Wind Dir Wind Speed Gust Speed Precip Events Conditions
12:15 AM 41.2 °F 37.3 °F 29.7 °F 64% 30.28 in 10.0 mi ESE 5.8 mph - N/A   Overcast
12:35 AM 39.9 °F 35.8 °F 29.3 °F 66% 30.28 in 10.0 mi SE 5.8 mph - N/A   Scattered Clouds
12:55 AM 39.7 °F - 29.3 °F 66% 30.28 in 10.0 mi Calm Calm - N/A   Clear
1:15 AM 41.4 °F - 28.6 °F 60% 30.28 in 10.0 mi Calm Calm - N/A   Clear
1:35 AM 39.9 °F 37.8 °F 28.9 °F 65% 30.28 in 10.0 mi NNE 3.5 mph - N/A   Clear
1:55 AM 37.9 °F 35.5 °F 28.0 °F 68% 30.28 in 10.0 mi NE 3.5 mph - N/A   Clear
2:15 AM 38.7 °F 36.3 °F 28.0 °F 66% 30.27 in 10.0 mi NE 3.5 mph - N/A   Clear
2:35 AM 37.9 °F 34.4 °F 28.4 °F 69% 30.27 in 10.0 mi NE 4.6 mph - N/A   Clear
2:55 AM 37.9 °F 34.4 °F 28.4 °F 69% 30.26 in 10.0 mi East 4.6 mph - N/A   Clear
3:15 AM 38.1 °F 34.6 °F 28.2 °F 68% 30.26 in 10.0 mi ENE 4.6 mph - N/A   Clear
3:35 AM 37.9 °F 34.4 °F 27.9 °F 67% 30.26 in 10.0 mi ENE 4.6 mph - N/A   Clear
3:55 AM 36.7 °F 32.0 °F 27.9 °F 70% 30.25 in 10.0 mi ENE 5.8 mph - N/A   Clear
4:15 AM 36.1 °F 31.4 °F 27.7 °F 71% 30.25 in 10.0 mi East 5.8 mph - N/A   Clear
4:35 AM 36.0 °F 32.1 °F 27.5 °F 71% 30.25 in 10.0 mi East 4.6 mph - N/A   Clear
4:55 AM 36.5 °F 31.8 °F 27.5 °F 70% 30.25 in 10.0 mi ESE 5.8 mph - N/A   Clear
5:15 AM 37.4 °F 32.8 °F 27.5 °F 67% 30.25 in 10.0 mi East 5.8 mph - N/A   Clear
5:35 AM 35.6 °F 30.7 °F 27.1 °F 71% 30.25 in 10.0 mi NE 5.8 mph - N/A   Clear
5:55 AM 34.9 °F 29.0 °F 27.1 °F 73% 30.26 in 10.0 mi NE 6.9 mph - N/A   Clear
6:15 AM 34.5 °F 28.6 °F 27.1 °F 74% 30.26 in 10.0 mi NE 6.9 mph - N/A   Clear
6:35 AM 34.0 °F 28.8 °F 26.8 °F 75% 30.26 in 10.0 mi NE 5.8 mph - N/A   Clear
6:55 AM 33.8 °F 28.6 °F 27.0 °F 76% 30.26 in 10.0 mi NE 5.8 mph - N/A   Clear
7:15 AM 33.8 °F 28.6 °F 27.1 °F 77% 30.27 in 7.0 mi NE 5.8 mph - N/A   Clear
7:35 AM 35.1 °F 30.1 °F 28.2 °F 76% 30.28 in 7.0 mi NE 5.8 mph - N/A   Clear
7:55 AM 38.5 °F 35.0 °F 30.4 °F 73% 30.28 in 7.0 mi ENE 4.6 mph - N/A   Clear
8:15 AM 40.1 °F 36.9 °F 31.3 °F 71% 30.29 in 7.0 mi ENE 4.6 mph - N/A   Clear
8:35 AM 42.8 °F 38.0 °F 31.6 °F 65% 30.29 in 10.0 mi East 8.1 mph - N/A   Clear
8:55 AM 44.8 °F 40.4 °F 31.8 °F 60% 30.30 in 10.0 mi East 8.1 mph - N/A   Clear
9:15 AM 47.1 °F - 31.6 °F 55% 30.30 in 10.0 mi East 6.9 mph - N/A   Clear
9:35 AM 48.9 °F - 30.9 °F 50% 30.29 in 10.0 mi East 6.9 mph - N/A   Clear
9:55 AM 51.3 °F - 30.7 °F 45% 30.30 in 10.0 mi ESE 5.8 mph - N/A   Clear
10:15 AM 53.2 °F - 29.5 °F 40% 30.29 in 10.0 mi East 8.1 mph - N/A   Clear
10:35 AM 55.0 °F - 28.4 °F 36% 30.29 in 10.0 mi ESE 9.2 mph - N/A   Clear
10:55 AM 56.7 °F - 28.2 °F 34% 30.29 in 10.0 mi ESE 8.1 mph - N/A   Clear
11:15 AM 58.3 °F - 27.9 °F 31% 30.28 in 10.0 mi SE 8.1 mph - N/A   Clear
11:55 AM 59.4 °F - 26.2 °F 28% 30.28 in 10.0 mi ENE 6.9 mph - N/A   Clear
12:15 PM 59.9 °F - 26.2 °F 28% 30.28 in 10.0 mi SE 6.9 mph - N/A   Clear
12:35 PM 60.3 °F - 24.1 °F 25% 30.28 in 10.0 mi East 8.1 mph - N/A   Clear
12:55 PM 60.4 °F - 24.6 °F 25% 30.27 in 10.0 mi East 5.8 mph - N/A   Clear
1:15 PM 61.9 °F - 24.4 °F 24% 30.26 in 10.0 mi East 10.4 mph - N/A   Clear
1:35 PM 62.4 °F - 19.2 °F 19% 30.25 in 10.0 mi NE 6.9 mph - N/A   Clear
1:55 PM 62.8 °F - 19.6 °F 19% 30.24 in 10.0 mi NE 4.6 mph - N/A   Clear
2:15 PM 63.9 °F - 18.0 °F 17% 30.24 in 10.0 mi ENE 5.8 mph - N/A   Clear
2:35 PM 63.3 °F - 20.1 °F 19% 30.23 in 10.0 mi ENE 10.4 mph - N/A   Clear
2:55 PM 64.4 °F - 19.8 °F 18% 30.23 in 10.0 mi East 9.2 mph - N/A   Clear
3:15 PM 64.0 °F - 17.8 °F 17% 30.22 in 10.0 mi East 9.2 mph - N/A   Clear
3:35 PM 64.6 °F - 18.9 °F 17% 30.21 in 10.0 mi NE 8.1 mph - N/A   Clear
3:55 PM 64.4 °F - 16.0 °F 15% 30.21 in 10.0 mi NE 9.2 mph - N/A   Clear
4:15 PM 64.6 °F - 17.6 °F 16% 30.20 in 10.0 mi ENE 9.2 mph - N/A   Clear
4:35 PM 64.8 °F - 18.9 °F 17% 30.20 in 10.0 mi East 3.5 mph - N/A   Clear
4:55 PM 64.4 °F - 17.6 °F 16% 30.20 in 10.0 mi ESE 5.8 mph - N/A   Clear
5:15 PM 64.8 °F - 16.7 °F 16% 30.20 in 10.0 mi ESE 6.9 mph - N/A   Clear
5:35 PM 63.9 °F - 17.4 °F 17% 30.20 in 10.0 mi East 5.8 mph - N/A   Clear
5:55 PM 63.5 °F - 16.9 °F 17% 30.20 in 10.0 mi Calm Calm - N/A   Clear
6:15 PM 62.6 °F - 20.3 °F 20% 30.20 in 10.0 mi East 6.9 mph - N/A   Clear
6:35 PM 61.7 °F - 20.1 °F 20% 30.20 in 10.0 mi East 3.5 mph - N/A   Clear
6:55 PM 59.9 °F - 26.6 °F 28% 30.19 in 10.0 mi East 5.8 mph - N/A   Clear
7:15 PM 57.4 °F - 27.9 °F 32% 30.19 in 10.0 mi East 8.1 mph - N/A   Clear
7:35 PM 54.3 °F - 31.1 °F 41% 30.19 in 10.0 mi ESE 6.9 mph - N/A   Clear
7:55 PM 52.7 °F - 30.2 °F 42% 30.19 in 10.0 mi ESE 5.8 mph - N/A   Clear
8:15 PM 52.7 °F - 28.2 °F 39% 30.19 in 10.0 mi ESE 5.8 mph - N/A   Clear
8:35 PM 52.2 °F - 27.9 °F 39% 30.19 in 10.0 mi ESE 4.6 mph - N/A   Clear
8:55 PM 51.6 °F - 27.3 °F 39% 30.20 in 10.0 mi ESE 5.8 mph - N/A   Clear
9:15 PM 50.7 °F - 28.0 °F 42% 30.20 in 10.0 mi ESE 5.8 mph - N/A   Clear
9:35 PM 50.9 °F - 27.5 °F 40% 30.20 in 10.0 mi ESE 5.8 mph - N/A   Clear
9:55 PM 50.2 °F - 27.5 °F 42% 30.20 in 10.0 mi ESE 5.8 mph - N/A   Clear
10:15 PM 48.9 °F - 27.3 °F 43% 30.21 in 10.0 mi SE 5.8 mph - N/A   Clear
10:35 PM 48.4 °F - 27.3 °F 44% 30.20 in 5.0 mi SE 5.8 mph - N/A   Haze
10:55 PM 48.2 °F - 27.5 °F 45% 30.20 in 10.0 mi SE 5.8 mph - N/A   Clear
11:15 PM 47.5 °F - 27.9 °F 47% 30.19 in 10.0 mi SE 6.9 mph - N/A   Clear
11:35 PM 46.6 °F - 28.6 °F 50% 30.19 in 10.0 mi SE 8.1 mph - N/A   Clear
11:55 PM 46.6 °F - 29.3 °F 51% 30.19 in 10.0 mi SE 6.9 mph - N/A   Clear